Find Starlink 2338

NORAD ID: 47793 Int'l Des: 2021-018 Owner: SPXS Country: US Constellation: starlink operational
LEOCIRCULARSTARLINK_TYPE

リアルタイム位置

3D地球を読み込み中...

Starlink 2338について

説明を読み込み中...

次回通過

Passes for default location (London). Set your location on the main map for personalized predictions.

高度履歴

Loading altitude history...

軌道要素

1 47793U 21018G 26122.16670139 .00015415 00000-0 54574-3 0 9992
2 47793 53.1481 350.2633 0001417 92.5424 113.2032 15.29336396 5829
Epoch: May 2, 2026 • Age: 9 hours

現在のステータス

高度 480.0 km
速度 7.63 km/s
衛星直下点 36.97°N, 28.64°W
打ち上げ日 Mar 11, 2021
運用期間 5.1 years
タイプ internet

技術仕様

分類 Payload
質量 260.00 kg
乾燥質量 248.00 kg
総質量 260.00 kg
長さ 0.20 m
直径 2.80 m
スパン 9.00 m
形状 Box + pan
製造者 SPXS
バスタイプ Starlink
フェーズステータス In Orbit
所有者/国 SPXS/US

Most Searched